002  
ASUS42 KMHX 071022  
RWRMHX  
WEATHER ROUNDUP FOR EASTERN NORTH CAROLINA  
NATIONAL WEATHER SERVICE NEWPORT/MOREHEAD CITY NC  
500 AM EST TUE FEB 07 2023  
 
NOTE: "FAIR" INDICATES FEW OR NO CLOUDS BELOW 12,000 FEET  
WITH NO SIGNIFICANT WEATHER AND/OR S TO VISIBILITY
 
 
NCZ015>017-031-032-045>047-102-103-071100-  
NORTH COAST  
 
CITY SKY/WX TMP DP RH WIND PRES REMARKS
 
EDENTON PTCLDY 32 32 100 CALM 30.36R  
ELIZABETH CITY PTCLDY 34 32 92 CALM 30.34S  
KITTY HAWK MOSUNNY 42 34 72 N3 30.32S  
MANTEO PTCLDY 36 33 88 CALM 30.34S  
 

 
 
NCZ045>047-081-094-103-104-071100-  
CENTRAL COAST  
 
CITY SKY/WX TMP DP RH WIND PRES REMARKS
 
FRISCO PTCLDY 43 38 82 VRB3 30.33R  
 

 
 
NCZ095-097-098-100-101-071100-  
SOUTHERN COAST  
 
CITY SKY/WX TMP DP RH WIND PRES REMARKS
 
PINEY ISLAND MOSUNNY 48 37 65 NE8 30.32S  
BEAUFORT PTCLDY 41 36 82 NE7 30.32R  
CAPE CARTERET PTCLDY 43 35 73 NE5 30.33R  
JACKSONVILLE PTCLDY 39 36 89 NE5 30.32R  
WILMINGTON PTCLDY 38 36 92 NE5 30.32R  
 

 
 
NCZ011>013-027>030-043-044-078>080-089-090>093-098-071100-  
COASTAL PLAIN  
 
CITY SKY/WX TMP DP RH WIND PRES REMARKS
 
AHOSKIE PTCLDY 28 28 100 CALM 30.36R  
ROCKY MOUNT PTCLDY 33 30 88 CALM 30.35R  
GREENVILLE PTCLDY 32 32 100 CALM 30.35R  
WASHINGTON PTCLDY 32 30 93 CALM 30.36R  
GOLDSBORO CLEAR 33 33 99 CALM 30.31R  
KINSTON PTCLDY 32 32 99 CALM 30.35R  
NEW BERN PTCLDY 35 33 92 CALM 30.34S  
HAVELOCK PTCLDY 39 36 89 NE3 30.34R  
KENANSVILLE PTCLDY 28 28 100 CALM 30.34R FOG  
RICHLANDS PTCLDY 35 34 96 NE3 30.34R  
CLINTON MOCLDY 37 37 100 CALM 30.35R  
ELIZABETHTOWN PTCLDY 34 32 94 CALM 30.34R  
WHITEVILLE PTCLDY 34 33 94 CALM 30.34R  
 

 
 
AMZ130-135-150-152-154-156-158-170-250-252-270-ANZ085-086-088-633-658-670-071100-  
MARINE OBSERVATIONS  
 
STATION/POSITION TIME TEMP WIND PRES WAVE SWELL
 
AIR SEA DIR/SP/G HT/PER HT/PER  
(UTC) (F) (DEG/KT/KT) (MB) (FT/S) (FT/S)  
64 E VA BEACH NOT AVBL  
64 E VA BEACH 1000 47 59 N/A 8/ 8 2/11  
DUCK PIER 0948 45 47 20/ 11/ 12 1026.4  
2 E DUCK 0956 47 N/A 6/ 8 2/11  
10 NE DUCK 0956 47 N/A 6/ 8 2/11  
OREGON INLET 0936 44 48 10/ 9/ 12 1026.7  
13E OREGON INLT 0956 50 N/A 6/ 8 7/ 8  
13E CAPE HATTERA 0930 69 N/A 7/11 3/11  
HATTERAS CG 0948 45 49 360/ 9/ 11 1027.2  
DIAMOND BUOY 1000 73 10/ 16/ 21 1026.5  
CAPE LOOKOUT 1000 45 20/ 10/ 11 1027.2  
BEAUFORT LAB 0948 42 51 30/ 5/ 7 1026.2  
30 SE NEW RVR IN 0908 56 66 40/ 14/ 19 1026.7  
30 SE NEW RVR IN 0956 66 N/A 4/11 2/11  
27 SE WRIGHTSVLE 0908 56 57 10/ 8/ 12 1025.6  
5 SE WRIGHTSVLE NOT AVBL  
27 SE WRIGHTSVL 0908 56 57 10/ 8/ 12 1025.6  
FRYING PAN BUOY 1000 61 69 10/ 4/ 6 1026.3  
225 S CAPE HAT 1000 63 71 20/ 14/ 17 1023.8  
41 SE CHARLESTON 1000 62 73 90/ 2/ 8 1026.1  
 

 
 
 
CLICK HERE TO GO TO PREVIOUS BULLETINS.

The Nexlab NC Page Main Text Page